Location: Bukit Nyuki
(2.5885°N, 113.7476°E)
Time: 17:21:46
(UTC+00:00)

Envisat - Pass Details

Date: 18 May 2021
Orbit: 764 x 766 km, 98.1° (Epoch: 20 June)

Event Time Altitude Azimuth Distance (km) Brightness Sun altitude
Rises 21:26:03 0° 14° (NNE) 3,214 6.7 -12.1°
Reaches altitude 10° 21:28:20 10° 15° (NNE) 2,290 6.0 -11.6°
Maximum altitude 21:33:23 81° 102° (ESE) 775 3.1 -10.4°
Drops below altitude 10° 21:38:27 10° 189° (S) 2,297 5.2 -9.2°
Sets 21:40:46 0° 190° (S) 3,225 5.9 -8.7°
